CZ-2F DEB, 67720

Orbit data source: Space-Track

CZ-2F DEB, 67720 is space debris in LEO originally from a launch on Sat, 07 Feb 2026 UTC launched from the Jiuquan Satellite Launch Center, China (JSC). Debris objects in space refer to the collection of defunct objects orbiting the Earth. Examples of debris include non-operational satellites, rocket bodies, and fragments generated from explosions, collisions, or faulty payload assembly.

Loading next visibility...
Identifier
67720, 2026-024G
Orbit
LEO
Country
Flag of CNCN / PRC
Related business
Manufacturer
CALT?
Mission
Spacecraft
Bus & Motor
Unknown
Mass
1 kg wet, 1 kg dry
Launch date (UTC)
2026-02-07 (2 months ago)
Launch vehicle
Unknown
Launch site
Jiuquan Satellite Launch Center, China (JSC)
Object type
Payload
Rocket body
Debris
Shape & HBR
Unknown shape, 1.1 m
Radar Cross Section
RCS unknown

Expand to show TLE details & history
Last TLE update: 13 hours ago

TLE from 13 hours ago
0 CZ-2F DEB
1 67720U 26024G   26104.01269608  .00109898  00000-0  22960-2 0  9997
2 67720  49.8247 211.9748 0277003  50.2197 312.2795 15.12999216  9882
Epoch: 2026-04-14T00:18Z
TLE epoch observation values (Epoch: 2026-04-14T00:18:16.941Z)
Latitude
-0.00002°
Longitude
5.20915°
Altitude
401.898 km
Speed
7.74 km/s
True Right ascension
14h 07m 53s
True Declination
0° 00' 00"
Sunlit
Object was in full shadow at epoch
Visualization orbit readout
Latitude
Unknown
Longitude
Unknown
Altitude
Unknown
Speed
Unknown
Apparent Right ascension
Unknown
Apparent Declination
Unknown
Sunlit
N/A
Visualization observer readout
Local Sidereal Time
19:33:40
Azimuth
Unknown
Elevation
Unknown
Doppler factor
Unknown
Orbital elements
Apogee altitude
719.155 km
Perigee altitude
336.559 km
Semi-major axis
6,905.994 km
Eccentricity
0.0277
Inclination
49.8247°
RAAN
211.9748°
Arg. of periapsis
50.2197°
True anomaly
309.87573°
Mean anomaly
312.2795°
Eccentric anomaly
311.08321°
Mean motion
3.78185 °/min
Orbital period
95.19 mins
BSTAR
0.002296
Loading maneuver chart data...
Computing Atmospheric mass density...
Loading historical data...
Loading historical data...
Loading historical data...
Loading historical data...
Loading historical data...
Loading historical data...
Loading historical data...

Documentation

Showing up to 5 results
|